Home > Time Zones > World Clock > Weather > Latvia > Riga > Past weeks

Flag for Latvia Weather past 2 weeks in Riga, Latvia

Now
34 °F

Partly sunny.


Feels Like: 30 °F
Forecast: 28 / 38 °F
Wind: 5 mph from North

Location: Riga Airport

Current Time: Mar 5, 2015 at 10:02:03 AM

Latest Report: Mar 5, 2015 at 9:20 AM


Visibility: N/A

Pressure: 30.18 "Hg

Humidity: 100%

Dew point: 34 °F

Location of RigaLocation

Historic Weather in Riga — Graph

°F

Riga temperature yesterday

Maximum temperature yesterday: 41 °F (at 12:50 PM)
Minimum temperature yesterday: 32 °F (at 7:20 AM)
Average temperature yesterday: 36 °F

Past Weeks' High & Low Weather Summary

 TemperatureHumidityPressure
High45 °F (Feb 21, 2:20 PM)100% (Feb 18, 10:50 PM)30.27 "Hg (Feb 18, 10:50 PM)
Low25 °F (Feb 26, 2:50 AM)66% (Feb 21, 2:20 PM)29.30 "Hg (Mar 3, 5:50 AM)
Average36 °F93%29.83 "Hg
* Reported Feb 18 8:20 AM — Mar 5 8:50 AM, Riga, Weather by CustomWeather, © 2015

Note: Actual official high and low records may vary slightly from our data, if they occured in-between our weather recording intervals... More about our weather records

Advertising

Riga weather history for previous 24 hours

 ConditionsComfort  
Time TempWeatherWind HumidityBarometerVisibility
8:50 AM
Thu, Mar 5
32 °FBroken clouds.2 mph100%30.18 "Hg5 mi
8:20 AM32 °FScattered clouds.2 mph100%30.15 "Hg4 mi
7:50 AM32 °FPartly sunny.5 mph100%30.15 "Hg4 mi
7:20 AM30 °FScattered clouds.5 mph100%30.15 "Hg4 mi
6:20 AM30 °FPassing clouds.2 mph100%30.12 "HgN/A
5:20 AM30 °FPassing clouds.2 mph100%30.12 "HgN/A
4:50 AM32 °FPassing clouds.2 mph100%30.09 "HgN/A
3:50 AM32 °FPassing clouds.5 mph100%30.09 "HgN/A
3:20 AM32 °FPassing clouds.3 mph100%30.07 "HgN/A
2:50 AM32 °FPassing clouds.3 mph100%30.07 "HgN/A
2:20 AM32 °FPassing clouds.3 mph100%30.07 "HgN/A
1:50 AM32 °FPassing clouds.3 mph100%30.04 "HgN/A
1:20 AM32 °FPassing clouds.2 mph100%30.04 "HgN/A
12:50 AM32 °FPassing clouds.2 mph100%30.04 "HgN/A
12:20 AM34 °FPassing clouds.2 mph93%30.04 "HgN/A
11:20 PM
Wed, Mar 4
32 °FPassing clouds.2 mph100%30.01 "HgN/A
10:50 PM32 °FPassing clouds.1 mph100%30.01 "HgN/A
10:20 PM32 °FPassing clouds.No wind100%29.98 "HgN/A
9:50 PM32 °FPassing clouds.2 mph100%29.98 "HgN/A
9:20 PM34 °FPassing clouds.2 mph93%29.98 "HgN/A
8:50 PM34 °FPassing clouds.3 mph93%29.98 "HgN/A
8:20 PM34 °FPassing clouds.3 mph93%29.98 "HgN/A
7:50 PM34 °FPassing clouds.2 mph100%29.98 "HgN/A
7:20 PM34 °FPassing clouds.2 mph100%29.95 "HgN/A
6:50 PM36 °FClear.2 mph93%29.95 "Hg10 mi
6:20 PM36 °FClear.No wind93%29.95 "Hg10 mi
5:50 PM37 °FPassing clouds.5 mph87%29.92 "HgN/A
5:20 PM37 °FPassing clouds.5 mph87%29.92 "HgN/A
4:50 PM37 °FScattered clouds.6 mph87%29.92 "HgN/A
4:20 PM37 °FScattered clouds.9 mph87%29.89 "HgN/A
3:50 PM39 °FScattered clouds.10 mph81%29.89 "HgN/A
3:20 PM41 °FScattered clouds.9 mph70%29.89 "HgN/A
2:50 PM41 °FBroken clouds.9 mph70%29.89 "HgN/A
2:20 PM41 °FBroken clouds.10 mph76%29.86 "HgN/A
1:50 PM41 °FPartly sunny.8 mph70%29.86 "HgN/A
1:20 PM41 °FPartly sunny.9 mph70%29.86 "HgN/A
12:50 PM41 °FPartly sunny.10 mph70%29.86 "HgN/A
12:20 PM39 °FPartly sunny.8 mph81%29.86 "HgN/A
11:50 AM39 °FScattered clouds.9 mph81%29.86 "HgN/A
11:20 AM39 °FScattered clouds.12 mph81%29.86 "HgN/A
10:50 AM39 °FScattered clouds.14 mph81%29.86 "HgN/A
10:20 AM39 °FScattered clouds.12 mph81%29.83 "HgN/A
Weather by CustomWeather, © 2015

See weather overviewHow to use our weather pages